F4FTJ-13 Weather Reports


time (UTC)temp
F
wind
direction
speed
knots
gust
knots
rain 1hr
in
rain 24hr
in
rain mn
in
humidity
%
barometer
mb
20260507162037 64 86 1.7 3.5 0.00 0.00 0.00 58 1013.1
20260507161539 65 90 0.0 3.5 0.00 0.00 0.00 60 1013.3
20260507161037 65 101 1.7 6.1 0.00 0.00 0.00 58 1013.2
20260507155537 66 64 0.0 1.7 0.00 0.00 0.00 61 1013.3
20260507155036 67 67 0.0 3.5 0.00 0.00 0.00 59 1013.4
20260507154537 66 78 0.0 3.5 0.00 0.00 0.00 60 1013.5
20260507154037 66 106 0.9 5.2 0.00 0.00 0.00 61 1013.5
20260507153537 65 105 1.7 6.1 0.00 0.00 0.00 63 1013.4
20260507153037 64 101 1.7 6.1 0.00 0.00 0.00 59 1013.7
20260507152037 66 99 0.9 1.7 0.00 0.00 0.00 57 1013.5
20260507151538 66 88 0.9 3.5 0.00 0.00 0.00 55 1013.6
20260507151037 66 84 0.0 3.5 0.00 0.00 0.00 60 1013.4
20260507150537 67 87 0.0 3.5 0.00 0.00 0.00 59 1013.8
20260507150037 64 97 0.0 3.5 0.00 0.00 0.00 62 1013.8
20260507145037 64 106 2.6 5.2 0.00 0.00 0.00 61 1013.8
20260507144537 64 118 2.6 5.2 0.00 0.00 0.00 58 1014.1
20260507144037 66 118 0.9 3.5 0.00 0.00 0.00 63 1013.9
20260507143537 65 104 0.9 5.2 0.00 0.00 0.00 61 1014.0
20260507143038 65 97 1.7 5.2 0.00 0.00 0.00 61 1014.3
20260507142537 66 100 0.9 3.5 0.00 0.00 0.00 59 1014.0
20260507142037 66 97 0.9 3.5 0.00 0.00 0.00 60 1014.0
20260507141537 64 90 1.7 3.5 0.00 0.00 0.00 58 1014.2
20260507141037 66 80 0.9 3.5 0.00 0.00 0.00 60 1014.2
20260507135537 64 90 1.7 3.5 0.00 0.00 0.00 62 1014.4
20260507135037 64 90 1.7 3.5 0.00 0.00 0.00 65 1014.4
20260507134537 63 90 0.0 1.7 0.00 0.00 0.00 64 1014.6
20260507134037 63 90 0.0 3.5 0.00 0.00 0.00 64 1014.4
20260507133538 62 81 1.7 3.5 0.00 0.00 0.00 61 1014.5
20260507133037 63 85 0.0 6.1 0.00 0.00 0.00 64 1014.5
20260507132537 62 86 1.7 6.1 0.00 0.00 0.00 67 1014.6
20260507132037 63 77 1.7 3.5 0.00 0.00 0.00 61 1014.3
20260507131538 63 76 0.0 3.5 0.00 0.00 0.00 63 1014.6
20260507131037 63 86 0.9 6.1 0.00 0.00 0.00 67 1014.7
20260507130537 62 88 1.7 6.1 0.00 0.00 0.00 64 1014.4
20260507130037 64 79 2.6 5.2 0.00 0.00 0.00 62 1014.5
20260507125538 65 86 1.7 5.2 0.00 0.00 0.00 61 1014.7
20260507125037 65 111 0.0 1.7 0.00 0.00 0.00 63 1014.7
20260507124538 63 90 0.0 1.7 0.00 0.00 0.00 65 1014.9
20260507123538 63 69 0.0 1.7 0.00 0.00 0.00 61 1014.9
20260507123037 63 76 0.0 7.0 0.00 0.00 0.00 64 1014.8
20260507122537 62 87 0.0 7.0 0.00 0.00 0.00 64 1014.8
20260507122037 63 94 3.5 7.0 0.00 0.00 0.00 66 1014.8
20260507121037 62 35 0.9 1.7 0.00 0.00 0.00 66 1015.0
20260507120537 62 22 0.9 1.7 0.00 0.00 0.00 66 1015.1
20260507120037 64 25 0.9 1.7 0.00 0.00 0.00 60 1015.0
20260507115537 63 42 0.9 1.7 0.00 0.00 0.00 64 1014.9
20260507114537 62 83 0.0 6.1 0.00 0.00 0.00 68 1015.1
20260507114037 62 87 0.9 6.1 0.00 0.00 0.00 72 1015.1
20260507113537 61 82 0.9 5.2 0.00 0.00 0.00 70 1015.2
20260507113037 63 74 1.7 5.2 0.00 0.00 0.00 67 1015.2
20260507112037 60 98 3.5 5.2 0.00 0.00 0.00 69 1015.3
20260507111038 64 121 0.9 5.2 0.00 0.00 0.00 63 1015.1
20260507110537 64 110 0.0 5.2 0.00 0.00 0.00 62 1015.2
20260507110038 64 83 1.7 3.5 0.00 0.00 0.00 64 1015.4
20260507105537 62 41 0.0 3.5 0.00 0.00 0.00 72 1015.5
20260507105037 62 34 0.9 3.5 0.00 0.00 0.00 67 1015.3
20260507104537 64 92 0.0 3.5 0.00 0.00 0.00 67 1015.4
20260507104038 64 110 0.9 3.5 0.00 0.00 0.00 64 1015.3
20260507103537 63 105 1.7 3.5 0.00 0.00 0.00 65 1015.3
20260507103037 62 69 2.6 3.5 0.00 0.00 0.00 65 1015.5
20260507102537 65 71 0.0 3.5 0.00 0.00 0.00 67 1015.3
20260507102037 63 94 0.9 5.2 0.00 0.00 0.00 69 1015.4
20260507101537 61 83 0.9 5.2 0.00 0.00 0.00 70 1015.5
20260507101037 62 63 1.7 3.5 0.00 0.00 0.00 68 1015.6
20260507100537 63 87 1.7 5.2 0.00 0.00 0.00 63 1015.5
20260507095537 62 77 2.6 5.2 0.00 0.00 0.00 67 1015.5
20260507095037 63 50 1.7 3.5 0.00 0.00 0.00 71 1015.5
20260507094537 62 64 0.9 5.2 0.00 0.00 0.00 68 1015.6
20260507094037 62 80 0.0 5.2 0.00 0.00 0.00 71 1015.5
20260507093537 61 85 1.7 3.5 0.00 0.00 0.00 71 1015.6
20260507093037 62 93 0.9 3.5 0.00 0.00 0.00 69 1015.5
20260507092537 59 97 0.9 3.5 0.00 0.00 0.00 72 1015.4
20260507091037 59 100 0.9 5.2 0.00 0.00 0.00 73 1015.4
20260507090537 58 114 1.7 5.2 0.00 0.00 0.00 76 1015.2
20260507090037 58 104 1.7 5.2 0.00 0.00 0.00 74 1015.6
20260507085537 58 90 1.7 5.2 0.00 0.00 0.00 76 1015.6
20260507085037 59 90 1.7 1.7 0.00 0.00 0.00 74 1015.4
20260507084537 59 89 0.9 3.5 0.00 0.00 0.00 78 1015.4
20260507084037 58 81 0.0 3.5 0.00 0.00 0.00 80 1015.4
20260507083537 60 76 0.9 3.5 0.00 0.00 0.00 75 1015.4
20260507082537 57 86 1.7 3.5 0.00 0.00 0.00 80 1015.3
20260507082037 57 95 0.9 3.5 0.00 0.00 0.00 79 1015.5
20260507081537 58 96 0.0 3.5 0.00 0.00 0.00 82 1015.2
20260507081037 57 90 1.7 3.5 0.00 0.00 0.00 80 1015.2
20260507080537 57 100 0.0 3.5 0.00 0.00 0.00 83 1015.3
20260507080037 56 100 1.7 3.5 0.00 0.01 0.00 81 1015.4
20260507075537 57 90 0.0 3.5 0.00 0.01 0.00 83 1015.4
20260507075037 57 90 0.9 3.5 0.00 0.01 0.00 82 1015.1
20260507074537 58 90 0.0 1.7 0.00 0.01 0.00 81 1015.4
20260507074037 57 90 0.0 3.5 0.00 0.01 0.00 84 1015.5
20260507073537 56 93 0.9 3.5 0.00 0.01 0.00 84 1015.2
20260507073037 55 95 1.7 3.5 0.00 0.01 0.00 88 1015.2
20260507072537 53 92 1.7 5.2 0.00 0.01 0.00 88 1015.3
20260507072037 53 90 2.6 5.2 0.00 0.01 0.00 88 1015.1
20260507071037 54 90 0.0 1.7 0.00 0.01 0.00 88 1015.1
20260507070537 53 81 0.9 1.7 0.00 0.01 0.00 88 1015.0
20260507070037 53 75 0.0 1.7 0.00 0.01 0.00 91 1015.2
20260507065537 53 76 0.0 1.7 0.00 0.01 0.00 93 1015.2
20260507065037 51 60 0.0 1.7 0.00 0.02 0.00 95 1015.3
20260507064537 49 52 0.9 1.7 0.00 0.02 0.00 97 1015.2
20260507064037 48 0 0.0 0.0 0.00 0.02 0.00 98 1015.1
20260507063537 48 0 0.0 0.0 0.00 0.02 0.00 99 1015.1
20260507063037 49 0 0.0 0.0 0.00 0.02 0.00 99 1015.4
20260507062537 47 45 0.0 1.7 0.00 0.04 0.00 99 1015.5
20260507061036 47 0 0.0 0.0 0.00 0.04 0.00 99 1015.4
20260507060537 45 0 0.0 0.0 0.00 0.04 0.00 99 1015.0
20260507055037 46 0 0.0 0.0 0.00 0.04 0.00 99 1015.2
20260507054537 45 0 0.0 0.0 0.00 0.04 0.00 99 1015.1
20260507053537 46 0 0.0 0.0 0.00 0.04 0.00 99 1014.9
20260507053037 44 0 0.0 0.0 0.00 0.04 0.00 99 1015.0
20260507052537 43 0 0.0 0.0 0.00 0.04 0.00 99 1014.6
20260507052037 41 0 0.0 0.0 0.00 0.04 0.00 99 1014.7
20260507051537 39 0 0.0 0.0 0.00 0.04 0.00 99 1014.7
20260507051037 38 0 0.0 0.0 0.00 0.04 0.00 99 1014.7
20260507050537 38 0 0.0 0.0 0.00 0.04 0.00 99 1014.7
20260507045537 37 0 0.0 0.0 0.00 0.04 0.00 99 1014.7
20260507045037 37 0 0.0 0.0 0.00 0.04 0.00 99 1014.6
20260507044538 37 0 0.0 0.0 0.00 0.04 0.00 99 1014.6
20260507044037 37 0 0.0 0.0 0.00 0.04 0.00 99 1014.5
20260507043537 37 0 0.0 0.0 0.00 0.04 0.00 99 1014.5
20260507043037 37 0 0.0 0.0 0.00 0.04 0.00 99 1014.6
20260507042037 38 0 0.0 0.0 0.00 0.04 0.00 99 1014.6
20260507041537 38 0 0.0 0.0 0.00 0.04 0.00 99 1014.3
20260507041037 38 0 0.0 0.0 0.00 0.04 0.00 99 1014.4
20260507040537 38 0 0.0 0.0 0.00 0.04 0.00 99 1014.6
20260507040037 39 0 0.0 0.0 0.00 0.04 0.00 99 1014.5
20260507035537 39 0 0.0 0.0 0.00 0.04 0.00 99 1014.4
20260507034537 39 0 0.0 0.0 0.00 0.04 0.00 99 1014.4
20260507034037 39 0 0.0 0.0 0.00 0.04 0.00 99 1014.5
20260507033537 40 0 0.0 0.0 0.00 0.04 0.00 99 1014.5
20260507033036 39 0 0.0 0.0 0.00 0.04 0.00 99 1014.4
20260507032537 40 0 0.0 0.0 0.00 0.04 0.00 99 1014.4
20260507031537 40 0 0.0 0.0 0.00 0.04 0.00 99 1014.3
20260507031037 40 0 0.0 0.0 0.00 0.04 0.00 99 1014.6
20260507030537 40 0 0.0 0.0 0.00 0.04 0.00 99 1014.4
20260507030037 40 0 0.0 0.0 0.00 0.04 0.00 99 1014.5
20260507025536 40 0 0.0 0.0 0.00 0.04 0.00 99 1014.4
20260507025037 40 0 0.0 0.0 0.00 0.04 0.00 99 1014.5
20260507024537 41 0 0.0 0.0 0.00 0.04 0.00 99 1014.2
20260507024037 41 0 0.0 0.0 0.00 0.04 0.00 99 1014.3
20260507023537 41 0 0.0 0.0 0.00 0.05 0.00 99 1014.4
20260507022536 42 0 0.0 0.0 0.00 0.05 0.00 99 1014.5
20260507022037 42 0 0.0 0.0 0.00 0.05 0.00 99 1014.3
20260507021537 42 0 0.0 0.0 0.00 0.06 0.00 99 1014.3
20260507021036 42 0 0.0 0.0 0.00 0.06 0.00 99 1014.4
20260507020538 43 0 0.0 0.0 0.00 0.06 0.00 99 1014.2
20260507020037 43 0 0.0 0.0 0.00 0.06 0.00 99 1014.5
20260507015537 42 0 0.0 0.0 0.00 0.07 0.00 99 1014.3
20260507015037 43 0 0.0 0.0 0.00 0.07 0.00 99 1014.2
20260507014536 43 0 0.0 0.0 0.00 0.08 0.00 99 1014.2
20260507014037 43 0 0.0 0.0 0.00 0.09 0.00 99 1014.4
20260507013036 44 0 0.0 0.0 0.00 0.14 0.00 99 1013.9
20260507012537 44 0 0.0 0.0 0.00 0.18 0.00 99 1013.9
20260507012037 45 0 0.0 0.0 0.00 0.21 0.00 99 1014.1
20260507011537 45 0 0.0 0.0 0.00 0.24 0.00 99 1013.9
20260507011037 45 0 0.0 0.0 0.00 0.25 0.00 99 1014.1
20260507010037 46 0 0.0 0.0 0.00 0.27 0.00 99 1014.3
20260507005537 46 0 0.0 0.0 0.00 0.27 0.00 99 1014.0
20260507004537 46 0 0.0 0.0 0.00 0.27 0.00 99 1014.1
20260507004037 46 0 0.0 0.0 0.00 0.28 0.00 99 1014.2
20260507003037 46 0 0.0 0.0 0.00 0.28 0.00 99 1013.9
20260507002537 46 0 0.0 0.0 0.00 0.28 0.00 99 1014.2
20260507002037 46 0 0.0 0.0 0.00 0.28 0.00 99 1014.2
20260507001037 46 0 0.0 0.0 0.00 0.28 0.00 99 1014.2
20260507000037 46 0 0.0 0.0 0.00 0.28 0.00 99 1014.1
20260506235537 46 0 0.0 0.0 0.00 0.28 0.00 99 1014.3
20260506235037 46 0 0.0 0.0 0.00 0.28 0.00 99 1014.2
20260506234537 46 0 0.0 0.0 0.00 0.28 0.00 99 1013.8
20260506234037 46 0 0.0 0.0 0.00 0.28 0.00 99 1014.1
20260506233537 46 0 0.0 0.0 0.00 0.28 0.00 99 1013.9
20260506233037 46 0 0.0 0.0 0.00 0.28 0.00 99 1013.9
20260506232037 46 0 0.0 0.0 0.00 0.28 0.00 99 1014.0
20260506231537 46 0 0.0 0.0 0.00 0.28 0.00 99 1014.0
20260506231037 46 0 0.0 0.0 0.00 0.28 0.00 99 1013.9
20260506230537 46 0 0.0 0.0 0.00 0.28 0.00 99 1013.9
20260506225537 46 0 0.0 0.0 0.00 0.28 0.00 99 1014.1
20260506225037 46 0 0.0 0.0 0.00 0.28 0.00 99 1014.1
20260506224537 46 0 0.0 0.0 0.00 0.28 0.00 99 1014.0
20260506224037 46 0 0.0 0.0 0.00 0.28 0.00 99 1013.9
20260506223537 46 0 0.0 0.0 0.00 0.28 0.00 99 1013.7
20260506223037 46 0 0.0 0.0 0.00 0.28 0.00 99 1014.0
20260506222537 46 0 0.0 0.0 0.00 0.28 0.00 99 1013.9
20260506222037 45 0 0.0 0.0 0.00 0.28 0.00 99 1014.0
20260506221537 45 0 0.0 0.0 0.00 0.28 0.00 99 1013.9
20260506215537 45 0 0.0 0.0 0.00 0.28 0.28 99 1013.5
20260506215037 46 0 0.0 0.0 0.00 0.28 0.28 99 1013.6
20260506214037 46 0 0.0 0.0 0.00 0.28 0.28 99 1013.7
20260506213537 46 0 0.0 0.0 0.00 0.28 0.28 99 1013.5
20260506213037 46 0 0.0 0.0 0.00 0.28 0.28 99 1013.5
20260506212537 46 0 0.0 0.0 0.00 0.28 0.28 99 1013.6
20260506211537 47 0 0.0 0.0 0.00 0.28 0.28 99 1013.5
20260506211037 47 0 0.0 0.0 0.00 0.28 0.28 99 1013.3
20260506210537 48 0 0.0 0.0 0.00 0.28 0.28 99 1013.5
20260506210037 47 0 0.0 0.0 0.00 0.28 0.28 99 1013.5
20260506205536 48 0 0.0 0.0 0.00 0.28 0.28 99 1013.1
20260506205037 48 0 0.0 0.0 0.00 0.28 0.28 99 1013.3
20260506204537 48 45 0.0 1.7 0.00 0.28 0.28 99 1013.2
20260506204037 49 45 0.0 1.7 0.00 0.28 0.28 99 1013.1
20260506203537 49 46 0.0 1.7 0.00 0.28 0.28 99 1013.2
20260506203038 49 0 0.0 0.0 0.00 0.28 0.28 99 1012.8
20260506202537 49 0 0.0 0.0 0.00 0.28 0.28 99 1013.2
20260506202038 49 0 0.0 0.0 0.00 0.28 0.28 99 1012.9
20260506201537 50 0 0.0 0.0 0.00 0.28 0.28 99 1012.8
20260506201038 50 0 0.0 0.0 0.00 0.28 0.28 99 1012.7
20260506200537 50 0 0.0 0.0 0.00 0.28 0.28 99 1012.8
20260506200037 51 0 0.0 0.0 0.00 0.28 0.28 99 1012.9
20260506195037 51 45 0.0 1.7 0.00 0.30 0.28 99 1012.6
20260506194037 52 0 0.0 0.0 0.00 0.30 0.28 98 1012.4
20260506193537 52 46 0.0 1.7 0.00 0.30 0.28 98 1012.5
20260506193037 53 45 0.0 1.7 0.00 0.30 0.28 98 1012.2
20260506192037 54 0 0.0 0.0 0.00 0.30 0.28 97 1012.3
20260506191537 54 0 0.0 0.0 0.00 0.30 0.28 97 1012.1
20260506191037 54 0 0.0 0.0 0.00 0.30 0.28 97 1012.2
20260506190537 55 0 0.0 0.0 0.00 0.30 0.28 97 1011.9
20260506190037 55 0 0.0 0.0 0.00 0.30 0.28 96 1011.7
20260506185537 55 0 0.0 0.0 0.00 0.30 0.28 96 1011.9
20260506185037 55 0 0.0 0.0 0.00 0.30 0.28 96 1011.7
20260506184037 56 0 0.0 0.0 0.00 0.30 0.28 95 1012.0
20260506183537 56 0 0.0 0.0 0.00 0.30 0.28 95 1011.8
20260506183037 56 0 0.0 0.0 0.00 0.30 0.28 94 1011.8
20260506182537 56 0 0.0 0.0 0.00 0.30 0.28 94 1011.7
20260506182037 56 0 0.0 0.0 0.00 0.30 0.28 94 1011.9
20260506181537 56 0 0.0 0.0 0.00 0.30 0.28 93 1011.4
20260506181037 56 0 0.0 0.0 0.00 0.30 0.28 93 1011.6
20260506180537 56 0 0.0 0.0 0.00 0.30 0.28 92 1011.7
20260506180037 56 0 0.0 0.0 0.00 0.30 0.28 92 1011.6
20260506175036 57 0 0.0 0.0 0.00 0.30 0.28 90 1011.5
20260506174537 57 0 0.0 0.0 0.00 0.30 0.28 90 1011.2
20260506173037 57 46 0.0 1.7 0.00 0.31 0.28 85 1011.2
20260506172537 58 0 0.0 0.0 0.00 0.31 0.28 87 1011.2
20260506172037 58 0 0.0 0.0 0.00 0.31 0.28 88 1011.2
20260506171537 58 0 0.0 0.0 0.00 0.31 0.28 91 1011.3
20260506170537 57 0 0.0 0.0 0.00 0.31 0.28 93 1011.2
20260506170037 57 0 0.0 0.0 0.00 0.31 0.28 93 1011.3
20260506165537 57 0 0.0 0.0 0.00 0.31 0.28 93 1011.0
20260506165037 56 0 0.0 0.0 0.00 0.31 0.28 92 1011.3
20260506164537 57 0 0.0 0.0 0.00 0.31 0.28 92 1011.3
20260506164037 57 0 0.0 0.0 0.00 0.31 0.28 92 1011.4
20260506163537 57 0 0.0 0.0 0.00 0.31 0.28 91 1011.3
20260506163037 56 0 0.0 0.0 0.00 0.31 0.28 90 1011.3
20260506162537 57 0 0.0 0.0 0.00 0.31 0.28 92 1011.3